Regional Weather Roundup
Issued by NWS

Home | Current Version | Previous Version | Text Only | Print | Product List | Glossary On
Versions: 1 2 3 4 5 6 7 8 9 10 11 12 13 14 15 16 17 18 19 20 21 22 23 24 25 26 27 28 29 30 31 32 33 34 35 36 37 38 39 40 41 42 43 44 45 46 47 48 49 50
000
ASPQ40 PGUM 311912
RWRPQ
WEATHER ROUNDUP FOR THE MARIANAS AND MICRONESIA
NATIONAL WEATHER SERVICE TIYAN GU
500 AM CHST FRI AUG 01 2014

GUZ001>004-312000-
MARIANA ISLANDS-

CITY           SKY/WX    TMP DP  RH WIND       PRES   REMARKS
GUAM AIRPORT   PTCLDY    79  75  89 SE3       29.81S
ANDERSEN AFB   MOCLDY    77  75  94 S8        29.81F
ROTA AIRPORT   NOT AVBL
TINIAN AP      NOT AVBL
SAIPAN AP      PTCLDY    81  75  83 S5        29.81S

$$

PMZ161-312000-
REPUBLIC OF PALAU-

CITY           SKY/WX    TMP DP  RH WIND       PRES   REMARKS
KOROR AP       MOCLDY    82  81  94 S9        29.82F HX  95
KOROR WSO      CLOUDY    82  77  83 S9        29.81F HX  91

$$

PMZ171>174-312000-
FEDERATED STATES OF MICRONESIA-

CITY           SKY/WX    TMP DP  RH WIND       PRES   REMARKS
YAP AIRPORT    CLOUDY    82  77  83 SW8       29.79F HX  91
CHUUK AP       LGT RAIN  77  77 100 SE10      29.80S
POHNPEI AP     NOT AVBL
POHNPEI WSO    PTCLDY    75  73  94 E6        29.81R
KOSRAE AP      NOT AVBL

$$

PMZ181-312000-
REPUBLIC OF THE MARSHALL ISLANDS-

CITY           SKY/WX    TMP DP  RH WIND       PRES   REMARKS
KWAJALEIN AP   CLEAR     82  72  69 S3        29.84S
MAJURO AP      NOT AVBL
MAJURO WSO     PTCLDY    81  75  83 CALM      29.83S

$$



USA.gov is the U.S. government's official web portal to all federal, state and local government web resources and services.